Regional Weather Roundup
Issued by NWS Columbia, SC

Home | Current Version | Previous Version | Text Only | Print | Product List | Glossary On
Versions: 1 2 3 4 5 6 7 8 9 10 11 12 13 14 15 16 17 18 19 20 21 22 23 24 25 26 27 28 29 30 31 32 33 34 35 36 37 38 39 40 41 42 43 44 45 46 47 48 49 50
000
ASUS42 KCAE 251110
RWRCAE
REGIONAL WEATHER ROUNDUP
NATIONAL WEATHER SERVICE COLUMBIA SC
600 AM EST SAT FEB 25 2017

NOTE: "FAIR" INDICATES FEW OR NO CLOUDS BELOW 12,000 FEET WITH NO
SIGNIFICANT WEATHER AND/OR OBSTRUCTIONS TO VISIBILITY.

NOT ALL STATIONS ARE QUALITY CONTROLLED BY THE NATIONAL
WEATHER SERVICE. USE DATA WITH CAUTION...ESPECIALLY
DEWPOINT OBSERVATIONS.

SCZ001>056-GAZ040-063>065-077-251200-
...UPSTATE SOUTH CAROLINA...

CITY           SKY/WX    TMP DP  RH WIND       PRES   REMARKS
ANDERSON       CLEAR     60  56  86 S9        29.72F
LIBERTY        SUNNY     58  55  90 S6        29.71F
SPARTANBURG    MOCLDY    59  54  82 S3        29.73F
CLEMSON        CLEAR     61  54  77 VRB3      29.73F
GREENVILLE     MOCLDY    62  57  83 S8        29.73F
GREENWOOD      PTCLDY    59  56  89 S9        29.76F
GREER          MOCLDY    60  56  86 S8        29.72S
ROCK HILL      MOCLDY    60  57  89 SW9       29.75F
CHESTER        CLOUDY    59  57  94 S8        29.76F
LAURENS        PTSUNNY   59  57  94 S8        29.74F


...CENTRAL SOUTH CAROLINA...

CITY           SKY/WX    TMP DP  RH WIND       PRES   REMARKS
COLUMBIA APT   PTCLDY    61  58  90 S5        29.77F
COLUMBIA OWENS MOCLDY    62  58  86 S5        29.79S
MCENTIRE ANGB  MOCLDY    60  60 100 S7        29.78F
ORANGEBURG     MOCLDY    58  58 100 S3        29.79S
SUMTER SHAW    PTCLDY    59  57  92 SW6       29.77R
AIKEN          CLOUDY    59  59 100 S6        29.81F
BARNWELL       CLOUDY    61  61 100 CALM      29.79F
MANNING        FAIR      54  54 100 MISG      29.80R
CAMDEN         FAIR      57  57 100 CALM      29.79S
LANCASTER      SUNNY     59  59 100 S6        29.76F
WINNSBORO      MOSUNNY   59  59 100 S8        29.77F


...EASTERN AND COASTAL SOUTH CAROLINA...

CITY           SKY/WX    TMP DP  RH WIND       PRES   REMARKS
MYRTLE BEACH   FOG       53  52  96 CALM      29.79S VSB 1/4
N MYRTLE BCH   FOG       52  52 100 CALM      29.78R VSB 3/4
CONWAY         FOG       50  50 100 CALM      29.79R VSB<1/4
MARION         FOG       52  50  93 CALM      29.79S VSB 1/4
HARTSVILLE     FAIR      55  55 100 SW3       29.79R
FLORENCE       CLEAR     56  56 100 W7        29.79R
DARLINGTON     FOG       55  54  96 SW5       29.79S VSB 3/4
CHARLESTON APT PTCLDY    58  57  97 SW6       29.81R
MOUNT PLEASANT FOG       54  52  94 SW3       29.81R VSB 1
WALTERBORO     MOSUNNY   55  55 100 S3        29.82R
BEAUFORT       CLOUDY    62  62 100 SW6       29.82R


...EASTERN GEORGIA...

CITY           SKY/WX    TMP DP  RH WIND       PRES   REMARKS
AUGUSTA BUSH F MOCLDY    63  61  93 SW8       29.77F
AUGUSTA DANIEL MOCLDY    62  58  86 SW5       29.78F
THOMSON        PTCLDY    63  62  99 CALM      29.81F
WASHINGTON     FAIR      61  61 100 S5        29.76S
CLAXTON        FAIR     N/A N/A N/A CALM      29.83R
SYLVANIA       PTSUNNY  N/A N/A N/A SW5       29.81S
STATESBORO     MOCLDY    63  32  31 SW5       29.82R
SAVANNAH       MOCLDY    62  60  93 SW7       29.83R FOG


...SOUTHERN NORTH CAROLINA...

CITY           SKY/WX    TMP DP  RH WIND       PRES   REMARKS
CHARLOTTE      PTCLDY    59  55  87 S8        29.75F
MONROE         PTCLDY    60  55  83 SW8       29.75S
WADESBORO      MOSUNNY   59  56  88 S5        29.77S
ROCKINGHAM     CLOUDY    57  57 100 S3        29.78S
RUTHERFORDTON  PTCLDY    59  57  94 S5        29.74S
ASHEVILLE      PTCLDY    57  50  77 S10       29.72F

$$



USA.gov is the U.S. government's official web portal to all federal, state and local government web resources and services.